EW3662 Weather Reports


Display with metric or nautical units.
time (UTC)temp
F
wind
direction
speed
MPH
gust
MPH
rain 1hr
in
rain 24hr
in
rain mn
in
humidity
%
barometer
mb
20260906211428 90 0 4.0 9.0 0.00 0.00 0.00 35 1015.6
20260906210926 89 0 2.0 9.0 0.00 0.00 0.00 39 1015.7
20260906210428 89 115 3.0 7.0 0.00 0.00 0.00 39 1015.8
20260906205926 90 0 4.0 9.0 0.00 0.00 0.00 38 1015.8
20260906205426 90 0 3.0 9.0 0.00 0.00 0.00 38 1015.8
20260906204926 89 0 3.0 8.0 0.00 0.00 0.00 38 1015.9
20260906204426 89 0 3.0 8.0 0.00 0.00 0.00 41 1015.9
20260906203924 89 0 3.0 7.0 0.00 0.00 0.00 40 1016.0
20260906203426 89 0 3.0 8.0 0.00 0.00 0.00 43 1016.0
20260906203155 89 0 3.0 8.0 0.00 0.00 0.00 40 1016.1
20260906202424 88 0 4.0 8.0 0.00 0.00 0.00 44 1016.0
20260906201925 88 0 4.0 8.0 0.00 0.00 0.00 40 1016.1
20260906201422 88 0 3.0 7.0 0.00 0.00 0.00 42 1016.1
20260906200922 88 0 3.0 7.0 0.00 0.00 0.00 41 1016.4
20260906200422 87 0 2.0 7.0 0.00 0.00 0.00 39 1016.5
20260906195922 87 0 1.0 6.0 0.00 0.00 0.00 40 1016.5
20260906195421 87 0 3.0 8.0 0.00 0.00 0.00 41 1016.6
20260906194920 87 0 4.0 9.0 0.00 0.00 0.00 40 1016.6
20260906194425 87 0 2.0 9.0 0.00 0.00 0.00 42 1016.6
20260906194420 86 0 4.0 9.0 0.00 0.00 0.00 39 1016.6
20260906193419 86 0 2.0 7.0 0.00 0.00 0.00 46 1016.6
20260906192920 86 0 2.0 8.0 0.00 0.00 0.00 43 1016.7
20260906192416 86 88 1.0 8.0 0.00 0.00 0.00 47 1016.7
20260906191916 86 0 2.0 8.0 0.00 0.00 0.00 45 1016.8
20260906191647 85 0 2.0 8.0 0.00 0.00 0.00 50 1016.9
20260906191144 85 0 2.0 7.0 0.00 0.00 0.00 49 1017.1
20260906190414 85 0 3.0 7.0 0.00 0.00 0.00 47 1017.2
20260906190145 85 0 2.0 7.0 0.00 0.00 0.00 48 1017.4
20260906185415 84 0 2.0 5.0 0.00 0.00 0.00 49 1017.6
20260906184916 84 0 2.0 6.0 0.00 0.00 0.00 49 1017.8
20260906184413 84 0 2.0 6.0 0.00 0.00 0.00 49 1017.8
20260906183912 84 0 2.0 6.0 0.00 0.00 0.00 49 1017.9
20260906183649 83 0 1.0 5.0 0.00 0.00 0.00 56 1018.0
20260906183412 83 0 1.0 6.0 0.00 0.00 0.00 50 1017.9
20260906182413 82 0 0.0 3.0 0.00 0.00 0.00 54 1018.2
20260906181912 82 0 1.0 7.0 0.00 0.00 0.00 54 1018.3
20260906181412 81 0 2.0 7.0 0.00 0.00 0.00 55 1018.3
20260906180912 81 0 1.0 6.0 0.00 0.00 0.00 55 1018.3
20260906180412 81 0 1.0 6.0 0.00 0.00 0.00 56 1018.6
20260906175911 81 0 1.0 6.0 0.00 0.00 0.00 55 1018.6
20260906175643 80 0 1.0 6.0 0.00 0.00 0.00 57 1018.7
20260906174910 80 0 1.0 6.0 0.00 0.00 0.00 56 1018.8
20260906174642 80 219 1.0 5.0 0.00 0.00 0.00 58 1018.9
20260906174148 79 0 1.0 6.0 0.00 0.00 0.00 56 1019.1
20260906173909 79 0 1.0 6.0 0.00 0.00 0.00 56 1019.0
20260906173143 79 0 2.0 7.0 0.00 0.00 0.00 60 1019.3
20260906172410 78 0 2.0 7.0 0.00 0.00 0.00 57 1019.4
20260906171911 78 0 1.0 6.0 0.00 0.00 0.00 61 1019.4
20260906171410 78 0 1.0 6.0 0.00 0.00 0.00 60 1019.6
20260906170909 78 0 1.0 5.0 0.00 0.00 0.00 58 1019.7
20260906170409 78 0 1.0 5.0 0.00 0.00 0.00 61 1019.7
20260906165910 78 0 1.0 5.0 0.00 0.00 0.00 60 1019.8
20260906165407 78 0 1.0 4.0 0.00 0.00 0.00 58 1019.8
20260906164908 78 0 2.0 7.0 0.00 0.00 0.00 61 1019.6
20260906164408 77 0 2.0 7.0 0.00 0.00 0.00 60 1019.6
20260906163908 77 0 2.0 5.0 0.00 0.00 0.00 59 1019.6
20260906163413 76 0 0.0 4.0 0.00 0.00 0.00 63 1019.6
20260906163408 76 0 1.0 5.0 0.00 0.00 0.00 61 1019.6
20260906162406 76 0 0.0 3.0 0.00 0.00 0.00 67 1019.6
20260906161907 76 0 0.0 5.0 0.00 0.00 0.00 65 1019.6
20260906161636 75 0 1.0 5.0 0.00 0.00 0.00 63 1019.7
20260906160904 75 0 1.0 4.0 0.00 0.00 0.00 61 1019.7
20260906160403 75 0 1.0 5.0 0.00 0.00 0.00 66 1019.8
20260906155904 75 0 0.0 5.0 0.00 0.00 0.00 64 1019.8
20260906155404 74 0 1.0 4.0 0.00 0.00 0.00 64 1019.8
20260906154904 73 0 1.0 4.0 0.00 0.00 0.00 66 1019.7
20260906154402 73 0 1.0 5.0 0.00 0.00 0.00 67 1019.8
20260906153858 72 0 1.0 5.0 0.00 0.00 0.00 68 1019.9
20260906153632 71 0 0.0 3.0 0.00 0.00 0.00 70 1019.9
20260906152900 71 0 0.0 3.0 0.00 0.00 0.00 70 1019.9
20260906152357 70 0 0.0 2.0 0.00 0.00 0.00 73 1020.1
20260906151855 69 0 0.0 1.0 0.00 0.00 0.00 74 1020.1
20260906151623 68 0 0.0 1.0 0.00 0.00 0.00 75 1020.2
20260906151123 67 0 0.0 0.0 0.00 0.00 0.00 78 1020.2
20260906150354 66 0 0.0 1.0 0.00 0.00 0.00 79 1020.2
20260906145850 66 0 0.0 1.0 0.00 0.00 0.00 79 1020.2
20260906145351 65 0 0.0 2.0 0.00 0.00 0.00 77 1020.2
20260906144851 65 0 0.0 2.0 0.00 0.00 0.00 78 1020.3
20260906144351 65 0 0.0 1.0 0.00 0.00 0.00 79 1020.3
20260906143852 65 0 0.0 1.0 0.00 0.00 0.00 79 1020.3
20260906143350 65 0 0.0 1.0 0.00 0.00 0.00 79 1020.2
20260906142850 64 0 0.0 1.0 0.00 0.00 0.00 80 1020.2
20260906142350 64 0 0.0 1.0 0.00 0.00 0.00 82 1020.2
20260906141848 64 0 0.0 1.0 0.00 0.00 0.00 82 1020.2
20260906141348 63 0 0.0 1.0 0.00 0.00 0.00 83 1020.2
20260906140850 63 0 0.0 1.0 0.00 0.00 0.00 83 1020.3
20260906140349 63 0 0.0 1.0 0.00 0.00 0.00 84 1020.3
20260906135849 62 0 0.0 1.0 0.00 0.00 0.00 84 1020.3
20260906135350 62 0 0.0 1.0 0.00 0.00 0.00 84 1020.2
20260906134848 62 0 0.0 1.0 0.00 0.00 0.00 86 1020.1
20260906134347 62 0 0.0 1.0 0.00 0.00 0.00 86 1020.2
20260906133848 61 0 0.0 1.0 0.00 0.00 0.00 86 1020.2
20260906133347 61 0 0.0 0.0 0.00 0.00 0.00 86 1020.1
20260906132848 61 0 0.0 0.0 0.00 0.00 0.00 86 1020.1
20260906132347 61 0 0.0 0.0 0.00 0.00 0.00 86 1020.1
20260906131847 61 0 0.0 0.0 0.00 0.00 0.00 86 1020.1
20260906131347 61 0 0.0 0.0 0.00 0.00 0.00 86 1019.9
20260906130846 61 0 0.0 0.0 0.00 0.00 0.00 86 1019.8
20260906130345 61 0 0.0 1.0 0.00 0.00 0.00 86 1019.9
20260906125845 61 0 0.0 1.0 0.00 0.00 0.00 86 1019.9
20260906125346 61 0 0.0 1.0 0.00 0.00 0.00 85 1019.9
20260906124844 61 0 0.0 1.0 0.00 0.00 0.00 85 1019.9
20260906124343 61 0 0.0 2.0 0.00 0.00 0.00 85 1019.9
20260906123843 62 0 0.0 2.0 0.00 0.00 0.00 85 1019.9
20260906123342 62 0 0.0 2.0 0.00 0.00 0.00 85 1019.8
20260906122842 62 0 0.0 2.0 0.00 0.00 0.00 85 1019.9
20260906122341 62 0 0.0 0.0 0.00 0.00 0.00 85 1019.9
20260906122111 62 0 0.0 0.0 0.00 0.00 0.00 85 1019.9
20260906121340 62 0 0.0 0.0 0.00 0.00 0.00 85 1019.9
20260906120838 62 0 0.0 1.0 0.00 0.00 0.00 85 1019.9
20260906120339 62 0 0.0 1.0 0.00 0.00 0.00 85 1019.8
20260906115839 63 0 0.0 1.0 0.00 0.00 0.00 84 1019.8
20260906115339 63 0 0.0 1.0 0.00 0.00 0.00 85 1019.8
20260906114838 63 0 0.0 1.0 0.00 0.00 0.00 84 1019.8
20260906114340 63 0 0.0 0.0 0.00 0.00 0.00 84 1019.8
20260906113840 63 0 0.0 1.0 0.00 0.00 0.00 84 1019.7
20260906113338 64 0 0.0 1.0 0.00 0.00 0.00 84 1019.8
20260906112839 64 0 0.0 1.0 0.00 0.00 0.00 83 1019.7
20260906112340 64 0 0.0 1.0 0.00 0.00 0.00 82 1019.7
20260906111839 64 0 0.0 1.0 0.00 0.00 0.00 82 1019.7
20260906111340 64 0 0.0 2.0 0.00 0.00 0.00 82 1019.8
20260906110840 64 0 0.0 2.0 0.00 0.00 0.00 82 1019.6
20260906110340 65 0 0.0 1.0 0.00 0.00 0.00 81 1019.6
20260906105838 65 0 0.0 2.0 0.00 0.00 0.00 81 1019.6
20260906105339 65 0 0.0 2.0 0.00 0.00 0.00 80 1019.5
20260906104845 65 0 1.0 3.0 0.00 0.00 0.00 79 1019.4
20260906104840 65 0 0.0 2.0 0.00 0.00 0.00 80 1019.5
20260906103839 66 0 2.0 4.0 0.00 0.00 0.00 79 1019.6
20260906103339 66 0 2.0 7.0 0.00 0.00 0.00 79 1019.6
20260906102840 66 0 1.0 7.0 0.00 0.00 0.00 79 1019.5
20260906102340 66 0 0.0 2.0 0.00 0.00 0.00 78 1019.6
20260906101840 66 0 1.0 2.0 0.00 0.00 0.00 78 1019.7
20260906101337 66 0 1.0 3.0 0.00 0.00 0.00 78 1019.6
20260906100838 66 0 1.0 3.0 0.00 0.00 0.00 77 1019.7
20260906100337 66 0 0.0 2.0 0.00 0.00 0.00 76 1019.7
20260906095837 66 0 0.0 2.0 0.00 0.00 0.00 75 1019.7
20260906095336 67 0 0.0 2.0 0.00 0.00 0.00 75 1019.6
20260906094838 67 0 0.0 2.0 0.00 0.00 0.00 75 1019.6
20260906094337 67 0 0.0 2.0 0.00 0.00 0.00 74 1019.5
20260906093837 67 0 1.0 2.0 0.00 0.00 0.00 74 1019.4
20260906093337 67 0 0.0 2.0 0.00 0.00 0.00 74 1019.3
20260906092836 67 0 0.0 2.0 0.00 0.00 0.00 74 1019.1
20260906092336 67 0 0.0 1.0 0.00 0.00 0.00 74 1019.1
20260906091838 67 0 0.0 1.0 0.00 0.00 0.00 73 1019.0
20260906091336 67 0 0.0 2.0 0.00 0.00 0.00 73 1019.0
20260906090837 67 0 0.0 2.0 0.00 0.00 0.00 73 1019.1
20260906090336 67 0 0.0 1.0 0.00 0.00 0.00 73 1019.0
20260906085837 67 0 0.0 1.0 0.00 0.00 0.00 73 1019.0
20260906085610 67 0 0.0 2.0 0.00 0.00 0.00 73 1019.0
20260906085108 67 0 0.0 2.0 0.00 0.00 0.00 73 1018.9
20260906084337 67 0 0.0 2.0 0.00 0.00 0.00 73 1018.9
20260906084109 67 0 0.0 2.0 0.00 0.00 0.00 74 1018.9
20260906083337 67 20 0.0 2.0 0.00 0.00 0.00 73 1018.9
20260906083109 67 0 0.0 1.0 0.00 0.00 0.00 72 1019.0
20260906082338 67 0 0.0 2.0 0.00 0.00 0.00 72 1019.0
20260906081838 67 0 0.0 2.0 0.00 0.00 0.00 73 1019.1
20260906081608 66 0 0.0 2.0 0.00 0.00 0.00 71 1019.1
20260906080838 66 0 0.0 1.0 0.00 0.00 0.00 73 1019.1
20260906080337 66 0 0.0 2.0 0.00 0.00 0.00 71 1019.1
20260906075837 66 0 0.0 2.0 0.00 0.00 0.00 72 1019.0
20260906075337 66 0 1.0 3.0 0.00 0.00 0.00 71 1019.1
20260906074837 66 0 1.0 3.0 0.00 0.00 0.00 70 1019.1
20260906074337 67 0 1.0 3.0 0.00 0.00 0.00 71 1018.9
20260906073838 67 0 1.0 3.0 0.00 0.00 0.00 69 1018.9
20260906073341 67 0 1.0 3.0 0.00 0.00 0.00 67 1019.1
20260906073337 67 0 1.0 3.0 0.00 0.00 0.00 69 1018.9
20260906072336 67 0 1.0 3.0 0.00 0.00 0.00 66 1019.1
20260906071843 67 0 1.0 3.0 0.00 0.00 0.00 64 1019.0
20260906071838 67 0 1.0 3.0 0.00 0.00 0.00 64 1019.1
20260906070837 68 0 2.0 5.0 0.00 0.00 0.00 64 1019.0
20260906070337 68 0 2.0 5.0 0.00 0.00 0.00 64 1019.1
20260906070110 68 0 2.0 5.0 0.00 0.00 0.00 62 1019.4
20260906065337 68 0 2.0 5.0 0.00 0.00 0.00 61 1019.4
20260906065107 68 0 3.0 5.0 0.00 0.00 0.00 62 1019.4
20260906064954 69 0 3.0 6.0 0.00 0.00 0.00 62 1019.3
20260906063836 69 0 1.0 6.0 0.00 0.00 0.00 64 1019.3
20260906063336 69 0 0.0 4.0 0.00 0.00 0.00 62 1019.3
20260906062837 69 0 1.0 4.0 0.00 0.00 0.00 62 1019.1
20260906062608 69 0 1.0 4.0 0.00 0.00 0.00 61 1019.4
20260906062108 69 0 1.0 4.0 0.00 0.00 0.00 62 1019.5
20260906061337 69 0 2.0 6.0 0.00 0.00 0.00 61 1019.3
20260906060838 69 0 2.0 6.0 0.00 0.00 0.00 61 1019.1
20260906060337 69 0 2.0 6.0 0.00 0.00 0.00 63 1019.0
20260906060107 69 0 2.0 6.0 0.00 0.00 0.00 61 1018.8
20260906055336 69 0 2.0 5.0 0.00 0.00 0.00 60 1018.7
20260906054837 69 0 2.0 5.0 0.00 0.00 0.00 60 1018.7
20260906054610 69 0 3.0 5.0 0.00 0.00 0.00 59 1018.7
20260906053837 70 0 2.0 5.0 0.00 0.00 0.00 58 1018.8
20260906053336 70 0 0.0 4.0 0.00 0.00 0.00 57 1018.8
20260906052838 70 0 0.0 2.0 0.00 0.00 0.00 56 1018.9
20260906052336 70 0 1.0 7.0 0.00 0.00 0.00 55 1018.9
20260906051837 70 0 2.0 7.0 0.00 0.00 0.00 56 1018.8
20260906051336 70 0 1.0 5.0 0.00 0.00 0.00 55 1018.8
20260906050836 70 0 1.0 5.0 0.00 0.00 0.00 53 1018.6
20260906050336 70 0 0.0 5.0 0.00 0.00 0.00 52 1018.6
20260906045838 70 0 0.0 3.0 0.00 0.00 0.00 50 1018.3
20260906045337 71 0 0.0 0.0 0.00 0.00 0.00 49 1018.3
20260906044836 71 0 0.0 0.0 0.00 0.00 0.00 48 1018.3
20260906044336 71 0 0.0 0.0 0.00 0.00 0.00 48 1018.2
20260906044107 71 0 0.0 0.0 0.00 0.00 0.00 47 1018.1
20260906043337 72 0 0.0 3.0 0.00 0.00 0.00 47 1018.0
20260906042838 72 0 1.0 4.0 0.00 0.00 0.00 47 1017.9
20260906042337 72 0 2.0 4.0 0.00 0.00 0.00 48 1017.8
20260906042108 72 0 2.0 4.0 0.00 0.00 0.00 48 1017.6
20260906041607 73 0 1.0 5.0 0.00 0.00 0.00 51 1017.6
20260906040836 73 0 1.0 5.0 0.00 0.00 0.00 48 1017.8
20260906040336 73 0 2.0 6.0 0.00 0.00 0.00 46 1018.0
20260906035836 73 0 4.0 7.0 0.00 0.00 0.00 48 1017.6
20260906035337 73 0 4.0 7.0 0.00 0.00 0.00 48 1017.5
20260906034838 73 0 3.0 6.0 0.00 0.00 0.00 48 1017.5
20260906034338 73 0 3.0 6.0 0.00 0.00 0.00 48 1017.5
20260906033836 74 0 3.0 6.0 0.00 0.00 0.00 48 1017.4
20260906033334 74 0 4.0 7.0 0.00 0.00 0.00 47 1017.4
20260906032834 74 0 4.0 7.0 0.00 0.00 0.00 47 1017.4
20260906032335 74 0 4.0 7.0 0.00 0.00 0.00 46 1017.3
20260906031834 74 0 4.0 7.0 0.00 0.00 0.00 46 1017.3
20260906031334 74 0 3.0 6.0 0.00 0.00 0.00 45 1017.3
20260906030834 75 0 3.0 7.0 0.00 0.00 0.00 45 1017.3
20260906030334 75 0 2.0 7.0 0.00 0.00 0.00 43 1017.3
20260906030105 75 0 2.0 5.0 0.00 0.00 0.00 42 1017.3
20260906025335 75 0 2.0 7.0 0.00 0.00 0.00 43 1017.2
20260906025106 75 0 2.0 7.0 0.00 0.00 0.00 46 1017.2
20260906024603 76 0 2.0 9.0 0.00 0.00 0.00 45 1017.1
20260906023832 76 0 3.0 9.0 0.00 0.00 0.00 44 1017.2
20260906023334 76 0 3.0 8.0 0.00 0.00 0.00 42 1017.2
20260906023103 76 0 4.0 8.0 0.00 0.00 0.00 42 1016.9
20260906022331 76 0 4.0 9.0 0.00 0.00 0.00 45 1016.8
20260906021832 76 0 3.0 9.0 0.00 0.00 0.00 43 1016.9
20260906021330 76 0 1.0 5.0 0.00 0.00 0.00 44 1016.8
20260906020828 76 0 2.0 6.0 0.00 0.00 0.00 42 1016.8
20260906020329 77 0 3.0 6.0 0.00 0.00 0.00 45 1016.7
20260906015828 78 0 3.0 6.0 0.00 0.00 0.00 44 1016.6
20260906015328 78 0 4.0 8.0 0.00 0.00 0.00 43 1016.5
20260906014828 78 0 4.0 8.0 0.00 0.00 0.00 43 1016.2
20260906014326 79 0 4.0 7.0 0.00 0.00 0.00 43 1016.4
20260906013828 79 0 4.0 7.0 0.00 0.00 0.00 39 1016.2
20260906013325 80 0 4.0 9.0 0.00 0.00 0.00 39 1016.2
20260906012824 80 0 4.0 9.0 0.00 0.00 0.00 38 1016.2
20260906012318 80 0 4.0 9.0 0.00 0.00 0.00 37 1016.4
20260906011819 81 0 5.0 9.0 0.00 0.00 0.00 37 1016.4
20260906011317 81 0 5.0 11.0 0.00 0.00 0.00 38 1016.4
20260906010812 81 0 5.0 11.0 0.00 0.00 0.00 37 1016.4
20260906010314 82 0 6.0 11.0 0.00 0.00 0.00 36 1016.4
20260906010043 82 0 7.0 11.0 0.00 0.00 0.00 35 1016.4
20260906005313 82 0 7.0 12.0 0.00 0.00 0.00 36 1016.4
20260906004817 83 0 8.0 14.0 0.00 0.00 0.00 36 1016.4
20260906004812 83 0 8.0 12.0 0.00 0.00 0.00 36 1016.4
20260906003810 83 0 9.0 19.0 0.00 0.00 0.00 35 1016.4
20260906003311 84 0 11.0 19.0 0.00 0.00 0.00 34 1016.2
20260906002811 84 0 11.0 19.0 0.00 0.00 0.00 33 1016.2
20260906002310 85 0 12.0 21.0 0.00 0.00 0.00 32 1016.2
20260906001810 86 0 12.0 21.0 0.00 0.00 0.00 31 1016.1
20260906001311 87 0 9.0 18.0 0.00 0.00 0.00 32 1016.0
20260906000809 87 0 5.0 14.0 0.00 0.00 0.00 31 1016.1
20260906000308 88 0 3.0 6.0 0.00 0.00 0.00 33 1016.0
20260905235808 89 0 2.0 5.0 0.00 0.00 0.00 33 1016.0
20260905235540 89 0 1.0 5.0 0.00 0.00 0.00 29 1016.0
20260905235041 90 0 1.0 4.0 0.00 0.00 0.00 32 1015.9
20260905234309 91 0 1.0 3.0 0.00 0.00 0.00 30 1015.9
20260905233809 91 0 1.0 3.0 0.00 0.00 0.00 28 1015.9
20260905233307 91 0 1.0 3.0 0.00 0.00 0.00 26 1015.9
20260905232808 92 0 0.0 2.0 0.00 0.00 0.00 29 1015.8
20260905232306 92 0 1.0 5.0 0.00 0.00 0.00 25 1015.8
20260905231806 92 0 2.0 6.0 0.00 0.00 0.00 26 1015.7
20260905231306 93 0 3.0 6.0 0.00 0.00 0.00 23 1015.6
20260905230806 93 0 2.0 6.0 0.00 0.00 0.00 24 1015.6
20260905230306 93 0 3.0 7.0 0.00 0.00 0.00 24 1015.4
20260905225806 94 0 4.0 8.0 0.00 0.00 0.00 21 1015.4
20260905225307 94 0 2.0 8.0 0.00 0.00 0.00 22 1015.3
20260905224806 94 0 1.0 5.0 0.00 0.00 0.00 25 1015.3
20260905224306 94 0 3.0 8.0 0.00 0.00 0.00 23 1015.3
20260905223804 94 0 5.0 8.0 0.00 0.00 0.00 24 1015.3
20260905223535 95 0 4.0 9.0 0.00 0.00 0.00 20 1015.3
20260905222804 95 0 4.0 9.0 0.00 0.00 0.00 21 1015.3
20260905222306 95 0 4.0 9.0 0.00 0.00 0.00 23 1015.3
20260905222035 95 0 4.0 9.0 0.00 0.00 0.00 22 1015.4
20260905221305 95 148 5.0 9.0 0.00 0.00 0.00 22 1015.4
20260905220806 95 0 5.0 9.0 0.00 0.00 0.00 23 1015.4
20260905220304 95 0 4.0 8.0 0.00 0.00 0.00 21 1015.4
20260905215804 95 0 3.0 7.0 0.00 0.00 0.00 24 1015.4
20260905215306 95 0 5.0 12.0 0.00 0.00 0.00 27 1015.4
20260905215035 95 0 5.0 12.0 0.00 0.00 0.00 23 1015.7
20260905214305 95 0 6.0 13.0 0.00 0.00 0.00 22 1015.8
20260905213802 95 0 6.0 13.0 0.00 0.00 0.00 23 1015.8
20260905213535 95 0 4.0 13.0 0.00 0.00 0.00 23 1015.9
20260905212804 95 0 3.0 9.0 0.00 0.00 0.00 24 1015.9
20260905212305 95 0 5.0 9.0 0.00 0.00 0.00 22 1016.0
20260905212035 95 0 4.0 9.0 0.00 0.00 0.00 22 1016.0